Theta_e
354 348 347 346 347 343 345 345 345 346 348 351 351 349 349 350 349 347 349 359 354 352 354 354 353 352 351 352 352 352 353 352 351 351 349 348 347 346 347 343 344 342 341
351 346 347 347 344 344 347 349 349 350 351 350 348 353 353 353 350 351 348 350 356 354 354 354 353 348 346 348 350 351 351 351 350 349 346 345 345 345 345 345 344 343 344
354 353 344 344 343 349 355 356 355 354 351 353 354 354 353 357 350 351 351 348 347 351 354 351 349 346 345 344 344 347 349 348 348 347 345 345 345 344 344 344 345 346 345
352 350 342 343 343 351 352 352 356 354 355 352 351 350 351 350 352 353 348 349 345 342 347 351 348 346 343 339 337 338 341 341 341 341 343 344 344 345 345 345 346 346 345
350 349 343 349 358 351 356 359 356 353 352 345 345 344 347 348 347 343 346 344 344 343 342 347 345 347 345 338 336 336 336 338 338 338 339 340 342 342 343 345 346 347 345
351 351 346 357 358 355 345 345 347 348 343 340 336 337 342 344 343 342 342 341 342 343 344 344 345 342 344 339 341 333 335 335 336 335 336 336 334 334 337 340 343 345 344
354 354 345 352 351 347 343 345 344 340 336 340 339 338 339 345 344 342 344 342 343 341 344 341 342 337 338 340 340 334 336 332 331 331 333 332 330 331 331 332 334 337 340
354 351 349 352 351 346 343 341 341 334 334 337 335 335 328 332 342 339 339 339 341 337 334 334 333 331 332 330 330 333 332 329 329 328 327 327 326 327 328 329 330 331 333
355 356 354 350 348 345 338 335 337 338 334 342 342 336 327 323 330 336 337 336 335 330 326 326 328 328 330 328 329 330 331 325 326 327 326 325 325 325 326 326 327 327 329
356 352 349 345 342 340 338 337 338 340 338 336 339 339 340 336 325 322 331 325 323 320 326 325 326 328 330 327 331 331 324 323 323 324 323 323 324 326 325 325 325 326 326
348 342 342 343 341 339 338 340 340 339 337 334 332 331 329 325 326 316 311 314 319 323 324 324 327 327 329 329 325 326 324 323 322 320 320 321 322 323 323 323 324 325 326
343 344 342 340 342 341 338 338 337 336 332 331 327 324 319 316 314 313 311 316 317 319 321 321 323 324 324 323 322 323 321 320 320 319 318 318 319 319 320 321 323 324 326
338 342 343 340 336 336 333 331 332 330 327 324 324 320 319 317 319 318 317 315 313 315 316 319 319 321 321 320 320 321 320 319 317 317 317 317 318 317 317 318 319 321 323
337 335 335 333 330 329 329 329 327 324 324 322 323 323 322 322 321 320 317 314 310 312 315 321 319 319 320 318 319 319 317 317 317 315 315 317 317 315 315 315 315 315 318
334 332 328 326 326 327 326 326 322 323 324 324 325 324 322 321 320 320 319 317 312 308 310 315 314 322 318 317 316 316 316 316 316 316 316 315 316 315 314 314 314 314 314
331 326 324 324 323 324 324 324 322 324 324 322 321 321 320 319 319 320 318 317 316 313 308 314 315 318 319 316 316 315 315 316 315 315 316 315 314 313 313 312 313 312 313
327 323 320 321 321 321 322 323 323 322 322 322 321 320 319 320 318 318 317 317 315 315 310 313 315 317 317 315 314 314 314 315 315 314 315 314 313 311 311 311 311 311 311
324 323 321 320 320 321 323 321 320 320 319 318 319 318 317 317 317 318 315 317 316 316 311 309 313 312 312 311 311 309 311 311 312 313 314 313 312 310 310 310 310 310 310
323 321 320 319 319 320 320 320 319 319 319 318 318 317 316 315 314 312 313 313 313 312 312 309 309 310 308 307 305 306 307 308 309 312 312 312 311 310 310 310 309 309 308
319 320 320 319 319 318 319 319 320 320 319 318 318 317 316 313 311 310 310 311 312 310 311 309 308 305 303 305 303 300 300 304 303 307 312 312 311 311 310 310 311 311 309
319 319 318 316 314 311 306 311 318 319 318 317 317 317 316 310 310 307 306 308 310 309 308 306 304 301 299 298 298 300 299 300 302 307 308 308 310 310 310 311 308 308 306
319 318 317 315 311 305 298 299 305 318 318 317 316 315 316 313 308 304 305 304 305 306 306 305 302 300 299 298 299 298 298 298 298 307 305 306 311 310 310 311 306 304 303
318 317 315 313 307 303 296 296 299 318 317 316 315 311 309 309 302 301 303 307 311 308 306 305 303 301 299 299 299 298 298 299 299 303 303 302 309 305 309 312 306 304 302
316 316 315 313 307 297 294 294 297 316 316 315 314 311 307 305 298 296 303 310 311 313 311 307 305 304 304 303 301 300 299 301 303 306 302 298 304 304 308 310 305 303 301
315 314 313 312 309 299 293 293 300 313 312 311 312 304 303 301 293 292 302 306 307 308 307 304 301 299 298 298 300 300 299 299 297 301 304 298 301 299 303 308 307 303 302
313 311 309 307 301 304 291 292 294 306 306 306 309 305 295 296 292 291 299 303 301 303 306 309 303 302 299 301 301 301 301 299 298 298 303 297 298 297 296 307 304 302 302
Wind_Speed
5 5 4 3 5 6 6 5 5 2 5 7 8 5 7 9 10 8 8 5 9 9 10 9 10 11 14 17 18 18 18 16 13 12 12 12 14 16 15 14 17 15 20
6 6 5 5 4 4 5 3 5 4 6 5 6 5 8 9 10 10 8 11 6 9 10 6 9 9 13 15 16 16 16 15 14 13 13 15 15 17 18 17 20 20 18
6 6 6 5 6 5 2 3 4 6 7 6 8 7 9 9 11 10 8 10 11 5 6 11 3 7 9 11 12 14 14 13 14 15 17 19 19 18 19 20 21 21 22
7 6 5 4 3 3 4 6 3 7 5 6 6 7 9 11 11 11 9 8 9 9 6 6 4 8 5 7 6 9 12 14 13 13 13 12 12 13 17 20 21 21 22
7 5 4 3 2 5 5 5 4 4 3 5 6 7 8 7 11 9 11 8 10 10 9 8 6 10 9 8 6 7 9 11 13 14 15 14 14 15 15 17 19 18 20
7 5 3 4 5 8 7 6 7 4 6 8 9 8 9 10 9 7 9 8 10 10 7 10 9 11 7 10 7 4 12 14 13 16 17 14 17 18 17 17 16 17 19
8 7 5 6 7 6 7 6 4 4 4 7 5 7 8 9 9 4 9 7 10 12 13 11 8 8 9 14 8 2 19 12 15 17 17 19 22 21 20 19 19 18 17
8 8 7 7 7 6 7 6 6 2 1 2 4 9 7 6 4 10 8 10 9 10 11 13 13 13 10 9 12 18 8 10 13 16 19 21 24 25 23 22 21 20 19
8 5 8 4 4 3 4 6 4 7 4 3 5 3 5 5 10 3 10 8 12 9 10 11 12 13 11 10 12 14 14 14 16 19 22 25 27 28 25 25 23 22 21
9 7 7 7 6 6 6 5 3 3 6 6 3 4 4 4 5 8 5 9 9 11 9 9 11 12 10 10 13 10 13 15 20 22 25 26 27 25 26 27 25 23 24
9 10 7 4 4 2 4 3 3 4 4 5 5 6 6 6 8 7 11 9 8 9 10 12 13 11 12 12 12 14 23 22 22 22 22 24 26 26 26 27 26 26 26
6 7 9 6 4 6 5 5 4 8 7 6 6 5 5 7 8 10 11 12 12 12 13 12 13 12 11 11 18 24 24 25 22 19 20 21 24 25 25 25 25 25 26
6 7 7 6 6 6 6 6 6 5 6 6 6 7 7 7 7 8 10 11 12 12 11 11 10 11 11 10 10 20 25 21 22 17 22 23 23 21 22 24 25 25 25
9 10 9 8 8 5 6 4 4 6 7 6 7 7 7 7 8 8 9 10 11 11 11 15 10 11 11 10 17 23 15 23 21 25 25 24 18 19 20 22 23 24 25
10 11 10 8 8 5 6 5 5 6 6 6 4 7 7 8 8 7 8 9 10 13 13 12 12 13 9 10 13 13 14 20 27 24 22 19 17 17 20 21 24 25 23
13 12 10 7 7 6 6 5 4 6 6 7 7 8 7 7 8 8 8 10 10 11 13 13 13 13 12 12 16 14 15 21 22 22 22 16 18 21 18 19 19 21 23
12 12 9 7 6 7 6 5 5 6 7 8 7 7 9 8 8 9 9 9 10 10 13 13 12 13 15 16 16 14 16 15 13 21 21 21 14 18 20 21 20 20 22
12 11 8 7 7 8 8 7 8 8 9 8 8 9 10 9 10 10 10 11 10 12 12 15 14 12 14 14 16 18 13 14 15 20 23 16 14 17 21 21 19 16 19
12 10 9 9 8 8 8 8 8 8 8 8 8 8 10 10 10 10 11 11 11 11 12 12 12 11 13 12 15 16 14 15 13 25 24 20 15 17 20 22 18 16 14
11 11 10 10 10 10 10 8 8 8 8 8 8 7 7 10 11 12 11 12 11 11 12 11 12 13 12 13 10 11 15 12 14 15 18 16 18 16 18 18 16 16 10
11 11 11 12 11 11 9 10 10 7 7 6 7 9 8 6 8 12 10 12 13 12 11 11 11 11 12 12 12 10 12 13 14 12 11 12 11 8 8 9 13 17 16
12 12 12 12 12 10 14 14 12 7 7 8 9 10 10 8 15 17 16 20 17 11 11 9 10 11 13 12 10 11 12 12 9 7 12 11 9 8 8 3 12 12 16
12 12 12 12 13 12 16 15 15 6 6 6 7 9 10 10 16 16 17 18 13 5 10 9 13 11 12 12 11 14 15 13 12 12 7 12 9 10 9 3 10 11 15
12 11 11 11 11 11 15 16 17 4 5 6 7 9 11 13 15 17 16 15 15 11 13 6 11 13 9 10 9 11 14 13 10 7 8 7 12 11 11 3 11 13 13
11 11 10 10 10 12 16 18 16 7 7 8 7 10 11 13 14 18 15 16 16 14 14 7 14 16 14 13 14 11 10 10 11 11 7 8 6 11 7 2 5 18 12
11 10 11 11 11 11 15 17 17 8 8 8 8 5 19 13 11 15 13 15 16 16 16 13 12 14 15 15 17 13 11 10 8 6 7 9 8 9 7 4 7 9 9
Wind_Direction
158 196 194 247 184 223 179 258 252 270 237 236 249 301 313 309 292 296 315 198 176 202 225 244 280 301 313 315 313 302 300 289 278 264 256 256 261 260 252 248 240 230 235
163 187 197 223 228 262 258 220 213 254 246 296 258 344 322 289 295 296 300 311 217 214 229 245 265 312 318 324 319 312 308 304 289 275 269 272 262 256 255 250 252 247 233
158 233 210 223 216 214 321 284 286 227 247 344 21 330 321 317 304 307 327 307 314 329 202 234 247 295 316 326 327 332 331 334 321 302 282 279 271 266 259 257 249 239 227
166 210 203 217 240 238 219 243 337 347 338 0 2 331 322 314 312 308 303 352 326 299 290 194 212 258 277 295 321 341 343 344 346 342 336 329 320 301 273 258 249 241 230
174 225 234 171 66 255 8 15 19 343 355 336 342 309 292 310 331 327 336 329 289 335 337 336 222 285 229 243 291 311 327 334 335 335 329 322 321 317 315 295 258 246 240
164 199 180 56 54 55 56 43 40 18 16 347 310 292 329 320 305 329 330 317 332 320 314 319 295 315 183 231 291 360 343 323 331 334 331 343 336 330 327 324 320 277 254
160 171 190 166 124 124 114 102 86 60 25 354 317 319 311 288 335 13 1 338 316 336 337 335 320 326 317 318 2 336 324 346 335 333 337 337 329 321 319 317 316 318 314
166 174 196 157 170 153 147 144 146 129 272 22 287 306 297 321 13 347 337 335 349 322 317 337 329 329 322 334 331 318 23 354 342 334 329 325 318 312 309 306 304 305 304
172 153 153 152 165 221 80 65 68 38 0 317 12 320 324 333 333 322 330 340 320 338 329 328 319 323 338 318 311 333 360 359 343 328 322 318 311 304 302 300 298 296 294
144 130 96 104 117 103 106 92 80 2 357 339 345 32 1 315 306 309 313 323 342 320 321 322 324 320 312 315 324 359 20 351 335 326 322 321 311 304 303 300 295 291 290
89 99 112 86 110 164 97 108 95 49 26 347 349 348 350 328 305 330 315 318 302 323 339 337 312 316 332 353 345 328 346 340 332 329 329 314 309 306 306 301 297 292 287
102 117 114 117 66 44 41 41 34 67 48 8 357 346 335 327 317 314 311 315 327 338 340 335 332 332 338 327 340 333 333 328 327 326 321 311 307 306 305 303 301 297 291
102 115 91 78 75 56 60 40 24 53 58 36 7 332 338 316 334 326 317 326 334 332 328 306 329 327 340 351 335 342 327 321 321 327 313 307 301 303 309 309 307 302 297
98 96 80 82 77 57 73 25 43 21 46 22 26 1 319 344 345 342 330 329 325 309 310 339 344 347 354 350 333 325 323 324 327 315 300 295 293 288 298 297 303 302 296
117 104 98 86 80 62 52 53 30 28 28 23 6 8 350 0 340 323 325 316 316 325 325 336 337 350 352 338 319 332 323 322 310 308 310 311 311 290 298 291 292 289 291
105 99 90 84 72 62 54 26 32 40 33 32 16 15 357 2 327 324 339 326 336 323 319 329 346 331 346 338 330 332 320 315 307 315 313 324 319 312 299 296 299 292 289
106 97 97 98 101 87 71 69 74 43 41 33 20 13 16 2 359 346 341 336 328 336 322 332 320 338 338 341 332 329 324 321 317 320 315 320 320 324 318 306 298 294 287
105 106 112 101 89 75 65 60 51 42 35 28 28 19 14 7 351 358 337 344 331 334 334 321 335 334 340 339 335 324 325 325 329 315 312 306 305 314 317 312 301 302 283
103 102 97 86 77 75 74 64 48 44 45 37 24 15 12 7 359 348 337 339 341 338 328 332 325 335 330 332 325 319 326 317 316 317 321 319 321 315 315 311 309 301 291
101 94 87 83 71 54 41 52 48 42 30 35 22 2 24 9 357 348 341 337 342 330 335 329 330 330 327 327 319 321 321 322 317 314 312 315 318 318 316 325 339 338 335
102 102 97 86 74 61 34 5 0 44 34 27 19 10 24 53 27 3 337 332 324 328 327 321 326 320 323 330 334 322 313 312 311 303 312 318 316 315 319 331 352 352 347
102 95 88 82 69 55 4 8 355 5 31 24 18 12 347 29 9 350 342 318 296 287 304 326 318 321 323 322 318 321 314 315 319 310 322 316 314 330 331 329 5 3 360
99 94 87 78 62 39 7 356 345 348 28 23 25 17 359 11 14 348 341 310 344 309 237 294 330 323 314 319 317 321 320 312 316 308 327 326 345 327 326 359 15 12 12
97 90 84 78 70 45 13 359 335 288 20 25 15 29 8 2 14 349 332 347 343 350 350 351 345 330 299 302 322 317 305 308 310 325 15 313 334 329 325 95 31 7 20
99 87 75 67 72 50 19 9 349 357 26 358 22 49 28 14 356 343 341 350 344 353 339 17 3 336 340 316 336 330 331 336 331 328 22 331 327 326 316 19 31 15 1
100 93 84 75 35 60 30 16 2 21 19 346 19 82 66 20 335 324 339 357 350 346 332 346 3 358 344 340 340 341 321 332 333 324 14 340 332 349 323 331 352 11 355